Location: Franzen
(48.6167°N, 15.3833°E)
Time: 10:53:50
(UTC+00:00)

Cosmos 2297 Rocket - Pass Details

Date: 22 April 2021
Orbit: 838 x 845 km, 71.0° (Epoch: 16 May)

Event Time Altitude Azimuth Distance (km) Brightness Sun altitude
Rises 18:58:00 0° 187° (S) 3,379 5.1 -9.4°
Reaches altitude 10° 19:00:30 10° 181° (S) 2,449 4.3 -9.8°
Maximum altitude 19:05:51 47° 109° (ESE) 1,103 2.4 -10.5°
Drops below altitude 10° 19:11:15 10° 38° (NE) 2,470 4.6 -11.2°
Sets 19:13:46 0° 32° (NNE) 3,410 5.4 -11.6°
